Location: ???????
(55.2903°N, 39.1554°E)
Time: 11:14:52
(UTC+00:00)

HTV-X1 - Visible Passes

Search period start: 08 May 2026 00:00
Search period end: 18 May 2026 00:00
Orbit: 373 x 383 km, 51.6° (Epoch: 8 May)

Date Brightness Start Highest point End Pass type
(mag) Time Alt. Az. Time Alt. Az. Time Alt. Az.
8 May ? 22:25:58 11° ESE 22:25:58 11° ESE 22:26:09 10° ESE visible
8 May ? 23:58:11 16° SW 23:58:36 17° SSW 00:00:40 10° SSE visible
9 May ? 18:10:56 10° SSE 18:11:51 11° SE 18:12:46 10° SE visible
9 May ? 19:44:17 10° SW 19:45:22 18° SSW 19:45:22 18° SSW visible
10 May ? 18:43:59 10° SSW 18:46:26 22° SSE 18:48:46 11° ESE visible
10 May ? 20:18:57 10° WSW 20:20:57 31° SW 20:20:57 31° SW visible
11 May ? 19:18:19 10° SW 19:21:10 35° SSE 19:23:08 17° ESE visible
11 May ? 20:53:48 10° WSW 20:55:15 23° WSW 20:55:15 23° WSW visible
12 May ? 18:17:49 10° SW 18:20:29 26° SSE 18:23:08 10° E visible
12 May ? 19:53:01 10° WSW 19:55:58 42° S 19:56:55 31° SE visible
12 May ? 21:28:47 10° W 21:29:01 11° WSW 21:29:01 11° WSW visible
13 May ? 18:52:18 10° WSW 18:55:13 39° S 18:58:07 10° ESE visible
13 May ? 20:27:53 10° W 20:30:25 34° SSW 20:30:25 34° SSW visible
14 May ? 19:27:02 10° WSW 19:29:59 41° S 19:31:42 20° ESE visible
14 May ? 21:02:55 10° WSW 21:03:47 15° WSW 21:03:47 15° WSW visible
15 May ? 18:26:13 10° WSW 18:29:09 41° S 18:32:06 10° ESE visible
15 May ? 20:01:54 10° W 20:04:41 31° SSW 20:05:00 30° S visible
16 May ? 19:00:58 10° WSW 19:03:52 38° S 19:06:10 14° ESE visible
16 May ? 20:37:02 10° WSW 20:38:15 16° SW 20:38:15 16° SW visible
17 May ? 19:35:51 10° W 19:38:30 26° SSW 19:39:22 22° S visible
